Regional Weather Roundup
Issued by NWS Portland, ME

Current Version | Previous Version | Text Only | Print | Product List | Glossary Off
Versions: 1 2 3 4 5 6 7 8 9 10 11 12 13 14 15 16 17 18 19 20 21 22 23 24 25 26 27 28 29 30 31 32 33 34 35 36 37 38 39 40 41 42 43 44 45 46 47 48 49 50
000 ASUS41 KGYX 251710 RWRGYX WEATHER ROUNDUP FOR MAINE AND NEW HAMPSHIRE NATIONAL WEATHER SERVICE GRAY ME 100 PM EDT SUN JUN 25 2017 MEZ002-005-006-010-012-015-018-020-021-024-026-027-029-251800- MAINE CITY SKY/WX TMP DP RH WIND PRES REMARKS PORTLAND MOSUNNY 79 51 37 VRB7 29.88F SANFORD MOSUNNY 81 54 39 W8 29.90F BAR HARBOR SUNNY 77 55 46 SW13 29.86F WISCASSET MOSUNNY 77 54 44 W6 29.89F ROCKLAND MOSUNNY 74 58 57 S10 29.87F FRYEBURG MOSUNNY 77 51 40 W6 29.89F LEWISTONAUBURN SUNNY 76 54 46 VRB7 29.89F AUGUSTA MOSUNNY 76 53 44 VRB7 29.89S WATERVILLE MOSUNNY 76 55 48 W8 29.86S BANGOR MOSUNNY 75 53 46 SW9 29.85F GREENVILLE N/A 70 48 45 VRB5 29.86F MILLINOCKET MOSUNNY 75 50 41 VRB7 29.85S HOULTON MOSUNNY 75 53 46 W8 29.80F PRESQUE ISLE MOSUNNY 73 48 41 W10 29.81S FRENCHVILLE CLOUDY 67 47 48 W8 29.79F CARIBOU PTSUNNY 72 47 40 W8 29.79S $$ NHZ002-005-008-009-011-012-014-251800- NEW HAMPSHIRE CITY SKY/WX TMP DP RH WIND PRES REMARKS PORTSMOUTH MOSUNNY 80 50 34 W10 29.89F ROCHESTER MOSUNNY 80 53 39 MISG 29.90F NASHUA MOSUNNY 81 53 37 W8G21 29.91F MANCHESTER MOSUNNY 80 48 32 NW9 29.90F CONCORD MOSUNNY 81 52 36 W13G20 29.91F LACONIA PTSUNNY N/A N/A N/A W9 29.91F PLYMOUTH PTSUNNY 74 49 41 W3 29.90F BERLIN MOSUNNY 73 49 42 MISG 29.91F WHITEFIELD PTSUNNY 71 50 47 VRB6 29.91F JAFFREY SUNNY 76 53 44 SW8 29.95F KEENE MOSUNNY 78 54 43 SW8G17 29.93F LEBANON PTSUNNY 77 52 41 VRB6 29.90F MT WASHINGTON PTSUNNY 46 41 81 W32 N/A $$ VTZ005-007-008-251800- VERMONT CITY SKY/WX TMP DP RH WIND PRES REMARKS ST JOHNSBURY N/A 73 50 44 MISG 29.88F MONTPELIER PTSUNNY 71 52 50 N3 29.94F BURLINGTON RAIN 69 60 73 S6 29.88F $$ MAZ007-012-024-CTZ003-RIZ002-NYZ038-NYZ072-251800- SOUTHERN NEW ENGLAND AND NY CITY SKY/WX TMP DP RH WIND PRES REMARKS BOSTON MOSUNNY 80 53 39 SW8 29.91F WORCESTER SUNNY 77 50 38 W13 29.96F NANTUCKET SUNNY 75 60 59 SW13 29.96S PROVIDENCE MOSUNNY 81 54 39 S10G16 29.94F HARTFORD PTSUNNY 81 54 39 SW12 29.94F ALBANY PTSUNNY 78 55 44 W10 29.94F NEW YORK CITY PTSUNNY 83 56 39 SW10 29.96F $$ ANZ081-ANZ082-ANZ150-NHZ014-MEZ023>029-251800- COASTAL MARINE OBSERVATIONS STATION/POSITION TIME TEMP WIND PRES WAVE AIR SEA DIR/SP/G HT/PER (UTC) (F) (DEG/KT/KT) (MB) (FT/S) MATINICUS ROCK 1600 59 220/ 11/ 12 1012.0F ISLE OF SHOALS 1600 71 240/ 6/ 8 1012.6F JEFFREYS LEDGE 1606 61 N/A 2/10 CASHES LEDGE BUO 1650 65 61 1012.9S 3/10 GEORGES BANK BUO 1650 58 56 1014.6R 6/ 9 $$ .............KEY.............. WCI - WIND CHILL TC - TEMPERATURE IN CELSIUS VSB - VISIBILITY IN MILES HX - HEAT INDEX FAIR- INDICATES FEW OR NO CLOUDS BELOW 12,000 FT, WITH NO SIGNIFICANT WEATHER AND/OR OBSTRUCTIONS TO VISIBILITY.

USA.gov is the U.S. government's official web portal to all federal, state and local government web resources and services.